Location: Binningen
(47.7924°N, 8.7261°E)
Time: 20:38:24
(UTC+00:00)

Meteor 1-5 Rocket - Pass Details

Date: 17 May 2021
Orbit: 788 x 916 km, 81.2° (Epoch: 21 June)

Event Time Altitude Azimuth Distance (km) Brightness Sun altitude
Rises 19:47:49 0° 348° (NNW) 3,326 8.2 -7.5°
Reaches altitude 10° 19:50:13 10° 349° (N) 2,380 7.4 -7.8°
Maximum altitude 19:55:35 87° 79° (E) 798 4.1 -8.4°
Drops below altitude 10° 20:00:52 10° 169° (S) 2,347 6.0 -9.1°
Enters shadow 20:01:56 - 169° (S) 2,767 6.4 -9.2°
